星链-4635 (STARLINK-4635 )

导读

STARLINK-4635是美国太空探索技术公司(SpaceX)星链(Starlink)项目的卫星,于2022年10月5日发射升空,属于星链低轨互联网星座组网卫星。星链项目旨在为全球提供高速宽带互联网服务,该卫星入轨后,进一步扩充了星链星座的在轨规模,助力星座覆盖能力与服务能力的提升。

Basic Information
目录编号:
53966
目录名称:
STARLINK-4635
国际标识:
2022-125C
轨道中心:
EARTH
卫星名称:
星链-4635
卫星全名:
星链-4635 (STARLINK-4635 )
卫星状态:
在轨 (已飞行1351 天)
发射日期:
2022-10-05 UTC
国别 :
美国 (US)
星等 :
--
Orbit Information
数据来源 国际轨道数据 AOE轨道数据
星历时间 2026-06-17T09:36:28+0800
8小时前
查看轨道信息
2026-06-16T11:00:00+0800
1天前
查看轨道信息
半长轴 6917.931km 6917.944km
偏心率 0.0001389 0.0000909
轨道倾角 53.161° 53.159°
近地点辐角 79.763° 59.368°
升交点赤经 137.981° 142.215°
平近点角 280.351° 221.273°
近地点 538.833km 539.178km
远地点 540.755km 540.436km
周期 95.439分钟 95.439分钟
每日圈数 15.088235 15.088192
Detailed Information
固有亮度:
5
最大亮度:
2.5
卫星平台:
Starlink v1.5
覆盖范围:
全球
运营商:
太空探索技术公司
运营商所在国:
美国
制造商(研发单位):
太空探索技术公司
制造商所在国:
美国
使用方式:
暂无
Satellite Introduction
星链(Starlink)计划是由太空探索技术公司(SpaceX)提出的一个巨型低轨卫星互联网星座项目,计划在2019年至2024年间在太空搭建由约1.2万颗卫星组成的“星链”网络,其中1584颗将部署在地球上空550千米处的近地轨道,并从2020年开始工作。该卫星仍在工作。
2D Orbit Map
3D Orbit Map
Orbit Altitude Analysis Chart
Orbit Inclination Analysis Chart
Orbit Comprehensive Analysis Chart
View Comprehensive Chart